{"data":{"norad_id":54152,"intl_designator":"2022-139C","name":"GONETS-M 25","alt_names":[],"object_type":"PAYLOAD","status":"ACTIVE","operator":null,"country":"CIS","launch_date":"2022-10-22","launch_site_code":"VOSTO","launch_vehicle":null,"mission":null,"orbit_class":"UNKNOWN","rcs_meters":null,"size_class":null,"mass_kg":null,"dimensions":null,"purposes":[],"wikipedia_slug":null,"has_3d_model":false,"image_url":null,"decayed_at":null,"tle_current":{"epoch":"2026-09-20T22:23:31.346016Z","epoch_age_seconds":121408,"freshness":"FRESH","line1":"1 54152U 22139C   26263.93300169  .00000040  00000+0  21410-3 0  9998","line2":"2 54152  82.5008 288.5319 0020930  25.2176 334.9921 12.42892828177546","mean_motion":12.42892828,"eccentricity":0.002093,"inclination_deg":82.5008,"raan_deg":288.5319,"arg_perigee_deg":25.2176,"mean_anomaly_deg":334.9921,"bstar":0.0002141,"rev_number":17754,"period_min":115.858742408,"perigee_km":1477.8867746583,"apogee_km":1510.8410635056,"semimajor_km":7872.500919082,"source":"CELESTRAK","updated_at":"2026-09-21T09:00:09.409823Z"}}}